N314RS MMBT-KOKC

Flight info

Callsign N314RS
Flight time 2h 58m
Altitude 43000
Route HUX3A HUX UJ39 NUDOS UJ70 VER UT151 MAM/N0489F410 J25 BRO/N0485F430 J25 SAT J131 EDNAS J23 BATIK J58 SPS DCT GIMLE YUCKS3
Aircraft C750/M-SBDE3FGHRWXY/S

Departure

Time 2026-04-29 18:46
Airport Bahías de Huatulco International Airport (MMBT)

Arrival

Time 2026-04-29 21:44
Airport OKC Will Rogers World Airport (KOKC)
Time Latitude Longitude Altitude Speed Heading
2026-04-29 18:30 15.77285 -96.26031 450 ft 0 kts 355°
2026-04-29 18:42 15.77294 -96.26033 450 ft 3 kts 343°
2026-04-29 18:42 15.77318 -96.26059 450 ft 7 kts 298°
2026-04-29 18:42 15.77337 -96.26117 451 ft 10 kts 288°
2026-04-29 18:42 15.77364 -96.26194 452 ft 13 kts 290°
2026-04-29 18:43 15.77398 -96.26291 452 ft 16 kts 289°
2026-04-29 18:43 15.77439 -96.26412 453 ft 20 kts 290°
2026-04-29 18:43 15.77472 -96.26559 455 ft 22 kts 264°
2026-04-29 18:43 15.77443 -96.26725 457 ft 25 kts 259°
2026-04-29 18:44 15.77408 -96.26910 460 ft 27 kts 259°
2026-04-29 18:44 15.77370 -96.27111 463 ft 30 kts 259°
2026-04-29 18:44 15.77334 -96.27307 466 ft 22 kts 257°
2026-04-29 18:44 15.77271 -96.27413 467 ft 16 kts 218°
2026-04-29 18:45 15.77295 -96.27468 464 ft 11 kts 34°
2026-04-29 18:45 15.77325 -96.27354 467 ft 43 kts 79°
2026-04-29 18:45 15.77451 -96.26679 457 ft 138 kts 78°
2026-04-29 18:45 15.77640 -96.25569 715 ft 160 kts 84°
2026-04-29 18:46 15.77817 -96.24408 1445 ft 165 kts 82°
2026-04-29 18:46 15.78051 -96.23223 2064 ft 171 kts 79°
2026-04-29 18:46 15.78297 -96.22007 2711 ft 173 kts 78°
2026-04-29 18:46 15.78559 -96.20757 3230 ft 186 kts 78°
2026-04-29 18:47 15.78830 -96.19340 3525 ft 216 kts 79°
2026-04-29 18:47 15.79127 -96.17739 3920 ft 242 kts 79°
2026-04-29 18:47 15.79464 -96.15935 4346 ft 267 kts 79°
2026-04-29 18:47 15.79825 -96.14002 5096 ft 273 kts 79°
2026-04-29 18:48 15.80188 -96.12068 6039 ft 274 kts 78°
2026-04-29 18:48 15.80552 -96.10118 6858 ft 276 kts 77°
2026-04-29 18:48 15.80919 -96.08152 7771 ft 278 kts 77°
2026-04-29 18:48 15.80847 -96.06128 8544 ft 291 kts 105°
2026-04-29 18:49 15.79808 -96.04319 9495 ft 294 kts 124°
2026-04-29 18:49 15.78211 -96.02990 10123 ft 308 kts 152°
2026-04-29 18:49 15.76054 -96.02444 10319 ft 338 kts 177°
2026-04-29 18:49 15.73665 -96.02992 10282 ft 370 kts 204°
2026-04-29 18:50 15.71676 -96.04705 10775 ft 376 kts 233°
2026-04-29 18:50 15.70601 -96.07149 11440 ft 376 kts 258°
2026-04-29 18:50 15.70610 -96.09843 12006 ft 376 kts 284°
2026-04-29 18:50 15.71611 -96.12331 12632 ft 374 kts 301°
2026-04-29 18:51 15.72977 -96.14639 13251 ft 378 kts 305°
2026-04-29 18:51 15.74359 -96.16988 13835 ft 384 kts 303°
2026-04-29 18:51 15.75519 -96.19511 14366 ft 391 kts 295°
2026-04-29 18:51 15.76594 -96.22069 14805 ft 394 kts 303°
2026-04-29 18:52 15.78421 -96.24144 15319 ft 388 kts 325°
2026-04-29 18:52 15.80756 -96.25491 15921 ft 383 kts 343°
2026-04-29 18:52 15.83353 -96.25989 16522 ft 378 kts
2026-04-29 18:52 15.85984 -96.25988 17155 ft 379 kts
2026-04-29 18:53 15.88638 -96.25929 17745 ft 384 kts
2026-04-29 18:53 15.91323 -96.25851 18327 ft 389 kts
2026-04-29 18:53 15.94044 -96.25792 18886 ft 392 kts
2026-04-29 18:53 15.96774 -96.25746 19562 ft 394 kts
2026-04-29 18:54 15.99486 -96.25689 20137 ft 397 kts
2026-04-29 18:54 16.02262 -96.25624 20741 ft 400 kts
2026-04-29 18:54 16.05051 -96.25564 21392 ft 402 kts
2026-04-29 18:54 16.07866 -96.25508 21951 ft 407 kts
2026-04-29 18:55 16.10704 -96.25449 22546 ft 409 kts
2026-04-29 18:55 16.13561 -96.25386 23148 ft 413 kts
2026-04-29 18:55 16.16445 -96.25323 23760 ft 416 kts
2026-04-29 18:55 16.19348 -96.25263 24275 ft 418 kts
2026-04-29 18:56 16.22227 -96.25205 24845 ft 421 kts
2026-04-29 18:56 16.25157 -96.25142 25409 ft 423 kts
2026-04-29 18:56 16.28111 -96.25077 25966 ft 425 kts
2026-04-29 18:56 16.31073 -96.25015 26466 ft 428 kts
2026-04-29 18:57 16.34064 -96.24952 26915 ft 431 kts
2026-04-29 18:57 16.37067 -96.24888 27481 ft 433 kts
2026-04-29 18:57 16.40094 -96.24823 27964 ft 436 kts
2026-04-29 18:57 16.43132 -96.24759 28519 ft 438 kts
2026-04-29 18:58 16.46192 -96.24695 29018 ft 441 kts
2026-04-29 18:58 16.49273 -96.24628 29488 ft 444 kts
2026-04-29 18:58 16.52333 -96.24563 29911 ft 448 kts
2026-04-29 18:58 16.55454 -96.24498 30368 ft 449 kts
2026-04-29 18:59 16.58587 -96.24431 30704 ft 453 kts
2026-04-29 18:59 16.61744 -96.24363 31188 ft 453 kts
2026-04-29 18:59 16.64880 -96.24297 31821 ft 449 kts
2026-04-29 18:59 16.68004 -96.24231 32344 ft 449 kts
2026-04-29 19:00 16.71129 -96.24163 32873 ft 448 kts
2026-04-29 19:00 16.74242 -96.24097 33422 ft 447 kts
2026-04-29 19:00 16.77345 -96.24032 33980 ft 445 kts
2026-04-29 19:00 16.80400 -96.23967 34426 ft 445 kts
2026-04-29 19:01 16.83497 -96.23900 34881 ft 445 kts
2026-04-29 19:01 16.86593 -96.23834 35341 ft 445 kts
2026-04-29 19:01 16.89689 -96.23768 35802 ft 445 kts
2026-04-29 19:01 16.92784 -96.23702 36247 ft 445 kts
2026-04-29 19:02 16.95874 -96.23636 36759 ft 444 kts
2026-04-29 19:02 16.97920 -96.23592 37082 ft 444 kts
2026-04-29 19:02 17.02045 -96.23504 37725 ft 443 kts
2026-04-29 19:02 17.05089 -96.23439 38215 ft 443 kts
2026-04-29 19:03 17.08168 -96.23374 38703 ft 443 kts
2026-04-29 19:03 17.11242 -96.23308 39152 ft 442 kts
2026-04-29 19:03 17.14309 -96.23242 39637 ft 440 kts
2026-04-29 19:03 17.17365 -96.23176 40132 ft 438 kts
2026-04-29 19:04 17.20405 -96.23111 40617 ft 437 kts
2026-04-29 19:04 17.23442 -96.23046 41060 ft 436 kts
2026-04-29 19:04 17.26473 -96.22982 41518 ft 434 kts
2026-04-29 19:04 17.29490 -96.22917 41956 ft 433 kts
2026-04-29 19:05 17.32500 -96.22852 42370 ft 432 kts
2026-04-29 19:05 17.35504 -96.22788 42768 ft 430 kts
2026-04-29 19:05 17.38455 -96.22725 42946 ft 433 kts 360°
2026-04-29 19:05 17.41496 -96.22660 42935 ft 441 kts 360°
2026-04-29 19:06 17.47724 -96.22530 42944 ft 455 kts 360°
2026-04-29 19:07 17.57360 -96.22327 42924 ft 465 kts 360°
2026-04-29 19:07 17.63813 -96.22191 42909 ft 464 kts 360°
2026-04-29 19:08 17.70232 -96.22056 42897 ft 464 kts 360°
2026-04-29 19:08 17.76693 -96.21920 42888 ft 464 kts 360°
2026-04-29 19:09 17.83158 -96.21784 42879 ft 465 kts 360°
2026-04-29 19:09 17.89622 -96.21648 42864 ft 465 kts 360°
2026-04-29 19:10 17.96045 -96.21512 42857 ft 465 kts 360°
2026-04-29 19:10 18.02511 -96.21376 42854 ft 465 kts 360°
2026-04-29 19:11 18.08990 -96.21239 42849 ft 466 kts 360°
2026-04-29 19:11 18.15469 -96.21102 42845 ft 466 kts 360°
2026-04-29 19:12 18.21952 -96.20965 42841 ft 466 kts 360°
2026-04-29 19:12 18.28393 -96.20829 42841 ft 466 kts 360°
2026-04-29 19:13 18.34882 -96.20691 42839 ft 466 kts 360°
2026-04-29 19:13 18.41372 -96.20554 42841 ft 467 kts 360°
2026-04-29 19:14 18.47873 -96.20416 42837 ft 467 kts 360°
2026-04-29 19:14 18.54328 -96.20279 42838 ft 467 kts 360°
2026-04-29 19:15 18.60828 -96.20141 42840 ft 468 kts 360°
2026-04-29 19:15 18.67335 -96.20002 42842 ft 468 kts 360°
2026-04-29 19:16 18.73848 -96.19864 42846 ft 468 kts 360°
2026-04-29 19:16 18.80357 -96.19709 42848 ft 468 kts 360°
2026-04-29 19:17 18.86829 -96.19558 42857 ft 468 kts 360°
2026-04-29 19:17 18.93350 -96.19405 42872 ft 469 kts 360°
2026-04-29 19:18 18.99869 -96.19252 42875 ft 469 kts 360°
2026-04-29 19:18 19.06393 -96.19100 42889 ft 469 kts 360°
2026-04-29 19:19 19.12877 -96.18970 42878 ft 468 kts 358°
2026-04-29 19:19 19.19273 -96.20065 42882 ft 466 kts 345°
2026-04-29 19:20 19.25592 -96.21654 42885 ft 467 kts 346°
2026-04-29 19:20 19.31932 -96.23136 42873 ft 467 kts 346°
2026-04-29 19:21 19.38213 -96.24682 42869 ft 466 kts 346°
2026-04-29 19:21 19.44547 -96.26193 42865 ft 467 kts 346°
2026-04-29 19:22 19.50875 -96.27733 42855 ft 467 kts 346°
2026-04-29 19:22 19.57208 -96.29259 42861 ft 467 kts 346°
2026-04-29 19:23 19.63543 -96.30795 42864 ft 467 kts 346°
2026-04-29 19:23 19.69831 -96.32317 42863 ft 467 kts 346°
2026-04-29 19:24 19.76162 -96.33852 42862 ft 466 kts 346°
2026-04-29 19:24 19.82488 -96.35387 42859 ft 466 kts 346°
2026-04-29 19:25 19.88817 -96.36924 42859 ft 467 kts 346°
2026-04-29 19:25 19.95111 -96.38454 42859 ft 467 kts 346°
2026-04-29 19:26 20.01437 -96.39993 42865 ft 467 kts 346°
2026-04-29 19:26 20.07775 -96.41536 42860 ft 467 kts 346°
2026-04-29 19:27 20.14107 -96.43078 42861 ft 467 kts 346°
2026-04-29 19:27 20.20440 -96.44622 42859 ft 467 kts 346°
2026-04-29 19:28 20.26728 -96.46157 42859 ft 467 kts 346°
2026-04-29 19:28 20.33067 -96.47705 42860 ft 467 kts 346°
2026-04-29 19:29 20.39400 -96.49254 42859 ft 467 kts 346°
2026-04-29 19:29 20.45739 -96.50804 42860 ft 467 kts 346°
2026-04-29 19:30 20.51007 -96.52094 42859 ft 467 kts 345°
2026-04-29 19:30 20.58374 -96.53900 42860 ft 467 kts 345°
2026-04-29 19:31 20.64717 -96.55456 42860 ft 468 kts 345°
2026-04-29 19:31 20.71061 -96.57013 42863 ft 468 kts 345°
2026-04-29 19:32 20.76330 -96.58307 42867 ft 468 kts 345°
2026-04-29 19:32 20.82676 -96.59879 42863 ft 468 kts 345°
2026-04-29 19:33 20.89017 -96.61457 42862 ft 468 kts 345°
2026-04-29 19:33 20.95313 -96.63020 42865 ft 468 kts 345°
2026-04-29 19:34 21.01652 -96.64599 42866 ft 468 kts 345°
2026-04-29 19:34 21.07996 -96.66179 42865 ft 468 kts 345°
2026-04-29 19:35 21.14330 -96.67758 42869 ft 468 kts 345°
2026-04-29 19:35 21.20627 -96.69328 42871 ft 467 kts 345°
2026-04-29 19:36 21.26962 -96.70910 42870 ft 467 kts 345°
2026-04-29 19:36 21.33291 -96.72492 42869 ft 467 kts 345°
2026-04-29 19:37 21.39619 -96.74075 42871 ft 467 kts 345°
2026-04-29 19:37 21.45950 -96.75660 42876 ft 467 kts 345°
2026-04-29 19:38 21.52234 -96.77235 42877 ft 467 kts 345°
2026-04-29 19:38 21.58564 -96.78823 42876 ft 467 kts 345°
2026-04-29 19:39 21.64896 -96.80413 42877 ft 467 kts 345°
2026-04-29 19:39 21.71237 -96.81940 42875 ft 467 kts 346°
2026-04-29 19:40 21.77591 -96.83411 42878 ft 467 kts 345°
2026-04-29 19:40 21.83902 -96.84850 42877 ft 467 kts 346°
2026-04-29 19:41 21.90251 -96.86306 42879 ft 466 kts 346°
2026-04-29 19:41 21.96593 -96.87762 42881 ft 466 kts 346°
2026-04-29 19:42 22.02932 -96.89216 42880 ft 465 kts 346°
2026-04-29 19:42 22.09265 -96.90672 42883 ft 465 kts 346°
2026-04-29 19:43 22.15548 -96.92117 42879 ft 465 kts 346°
2026-04-29 19:43 22.21873 -96.93574 42881 ft 464 kts 346°
2026-04-29 19:44 22.28188 -96.95029 42881 ft 464 kts 346°
2026-04-29 19:44 22.34497 -96.96484 42881 ft 464 kts 346°
2026-04-29 19:45 22.40806 -96.97941 42883 ft 463 kts 345°
2026-04-29 19:45 22.47066 -96.99387 42880 ft 463 kts 345°
2026-04-29 19:46 22.53360 -97.00843 42884 ft 462 kts 345°
2026-04-29 19:46 22.59652 -97.02300 42883 ft 462 kts 345°
2026-04-29 19:47 22.65941 -97.03757 42886 ft 462 kts 345°
2026-04-29 19:47 22.72176 -97.05203 42880 ft 461 kts 345°
2026-04-29 19:48 22.78452 -97.06660 42883 ft 461 kts 345°
2026-04-29 19:48 22.84723 -97.08118 42883 ft 461 kts 345°
2026-04-29 19:49 22.90999 -97.09578 42888 ft 461 kts 345°
2026-04-29 19:49 22.97267 -97.11037 42886 ft 461 kts 345°
2026-04-29 19:50 23.03492 -97.12488 42887 ft 460 kts 345°
2026-04-29 19:50 23.09755 -97.13949 42884 ft 460 kts 345°
2026-04-29 19:51 23.16059 -97.15181 42880 ft 461 kts 350°
2026-04-29 19:51 23.22431 -97.16042 42884 ft 461 kts 349°
2026-04-29 19:52 23.28739 -97.16943 42886 ft 460 kts 349°
2026-04-29 19:52 23.35080 -97.17822 42880 ft 459 kts 349°
2026-04-29 19:53 23.41403 -97.18714 42884 ft 458 kts 349°
2026-04-29 19:53 23.47718 -97.19598 42877 ft 457 kts 349°
2026-04-29 19:54 23.57135 -97.20922 42873 ft 457 kts 349°
2026-04-29 19:54 23.63431 -97.21808 42877 ft 456 kts 349°
2026-04-29 19:55 23.69722 -97.22695 42874 ft 455 kts 349°
2026-04-29 19:55 23.75997 -97.23579 42872 ft 454 kts 349°
2026-04-29 19:56 23.82222 -97.24458 42865 ft 454 kts 349°
2026-04-29 19:56 23.88480 -97.25342 42863 ft 453 kts 349°
2026-04-29 19:57 23.93681 -97.26077 42854 ft 453 kts 349°
2026-04-29 19:57 24.00976 -97.27110 42851 ft 452 kts 349°
2026-04-29 19:58 24.07214 -97.27994 42854 ft 452 kts 349°
2026-04-29 19:58 24.13405 -97.28872 42859 ft 452 kts 349°
2026-04-29 19:59 24.19634 -97.29756 42847 ft 451 kts 349°
2026-04-29 19:59 24.25855 -97.30640 42859 ft 451 kts 349°
2026-04-29 20:00 24.32071 -97.31524 42861 ft 450 kts 348°
2026-04-29 20:00 24.38278 -97.32408 42850 ft 450 kts 348°
2026-04-29 20:01 24.44432 -97.33285 42861 ft 449 kts 348°
2026-04-29 20:01 24.50622 -97.34168 42855 ft 448 kts 348°
2026-04-29 20:02 24.56801 -97.35050 42862 ft 448 kts 348°
2026-04-29 20:02 24.61935 -97.35783 42849 ft 448 kts 348°
2026-04-29 20:03 24.69114 -97.36810 42860 ft 447 kts 348°
2026-04-29 20:03 24.75283 -97.37693 42860 ft 447 kts 348°
2026-04-29 20:04 24.81442 -97.38575 42857 ft 446 kts 348°
2026-04-29 20:04 24.87594 -97.39458 42864 ft 446 kts 348°
2026-04-29 20:05 24.93749 -97.40341 42861 ft 446 kts 348°
2026-04-29 20:05 24.99852 -97.41219 42868 ft 446 kts 348°
2026-04-29 20:06 25.06001 -97.42104 42868 ft 445 kts 348°
2026-04-29 20:06 25.12144 -97.42992 42863 ft 445 kts 348°
2026-04-29 20:07 25.18290 -97.43880 42857 ft 445 kts 348°
2026-04-29 20:07 25.24389 -97.44762 42867 ft 445 kts 348°
2026-04-29 20:08 25.29527 -97.45506 42864 ft 445 kts 347°
2026-04-29 20:08 25.36652 -97.46539 42870 ft 444 kts 347°
2026-04-29 20:09 25.42782 -97.47423 42874 ft 444 kts 347°
2026-04-29 20:09 25.48902 -97.48307 42880 ft 443 kts 347°
2026-04-29 20:10 25.54978 -97.49185 42887 ft 443 kts 347°
2026-04-29 20:10 25.61089 -97.50070 42886 ft 442 kts 347°
2026-04-29 20:11 25.67190 -97.50945 42887 ft 442 kts 348°
2026-04-29 20:11 25.73407 -97.50731 42866 ft 454 kts
2026-04-29 20:12 25.79489 -97.48658 42870 ft 470 kts 18°
2026-04-29 20:12 25.85057 -97.44672 42868 ft 486 kts 33°
2026-04-29 20:13 25.90536 -97.40490 42866 ft 470 kts 18°
2026-04-29 20:13 25.96627 -97.38274 42885 ft 455 kts
2026-04-29 20:14 26.02791 -97.37877 42895 ft 442 kts 352°
2026-04-29 20:14 26.08943 -97.38106 42892 ft 442 kts 352°
2026-04-29 20:15 26.15091 -97.38307 42889 ft 441 kts 352°
2026-04-29 20:15 26.21227 -97.38528 42884 ft 441 kts 352°
2026-04-29 20:16 26.27317 -97.38735 42889 ft 440 kts 352°
2026-04-29 20:16 26.33432 -97.38950 42888 ft 439 kts 352°
2026-04-29 20:17 26.39539 -97.39161 42886 ft 439 kts 352°
2026-04-29 20:17 26.45635 -97.39374 42886 ft 438 kts 352°
2026-04-29 20:18 26.51717 -97.39586 42890 ft 437 kts 352°
2026-04-29 20:18 26.57749 -97.39797 42887 ft 436 kts 352°
2026-04-29 20:19 26.63815 -97.40010 42886 ft 436 kts 352°
2026-04-29 20:19 26.69878 -97.40222 42889 ft 436 kts 352°
2026-04-29 20:20 26.75938 -97.40434 42889 ft 435 kts 352°
2026-04-29 20:20 26.81952 -97.40645 42889 ft 435 kts 352°
2026-04-29 20:21 26.88004 -97.40858 42890 ft 435 kts 352°
2026-04-29 20:21 26.94050 -97.41070 42891 ft 435 kts 351°
2026-04-29 20:22 27.00106 -97.41283 42886 ft 435 kts 351°
2026-04-29 20:22 27.06125 -97.41495 42890 ft 436 kts 351°
2026-04-29 20:23 27.12185 -97.41709 42888 ft 436 kts 351°
2026-04-29 20:23 27.18253 -97.41923 42885 ft 437 kts 351°
2026-04-29 20:24 27.24331 -97.42138 42888 ft 437 kts 351°
2026-04-29 20:24 27.30409 -97.42353 42885 ft 437 kts 351°
2026-04-29 20:25 27.36459 -97.42567 42880 ft 438 kts 351°
2026-04-29 20:25 27.42555 -97.42784 42884 ft 438 kts 351°
2026-04-29 20:26 27.48654 -97.43000 42889 ft 439 kts 351°
2026-04-29 20:26 27.54767 -97.43218 42887 ft 440 kts 351°
2026-04-29 20:27 27.59845 -97.43398 42890 ft 440 kts 351°
2026-04-29 20:27 27.66955 -97.43651 42891 ft 440 kts 351°
2026-04-29 20:28 27.73070 -97.43869 42897 ft 440 kts 351°
2026-04-29 20:28 27.79194 -97.44088 42892 ft 440 kts 351°
2026-04-29 20:29 27.85126 -97.44990 42877 ft 428 kts 339°
2026-04-29 20:29 27.90593 -97.47434 42884 ft 419 kts 327°
2026-04-29 20:30 27.95309 -97.51192 42877 ft 413 kts 315°
2026-04-29 20:30 27.99193 -97.55937 42889 ft 411 kts 309°
2026-04-29 20:31 28.02958 -97.60799 42876 ft 410 kts 309°
2026-04-29 20:31 28.06671 -97.65642 42870 ft 410 kts 309°
2026-04-29 20:32 28.10410 -97.70506 42865 ft 409 kts 309°
2026-04-29 20:32 28.14142 -97.75373 42873 ft 408 kts 309°
2026-04-29 20:33 28.17866 -97.80234 42879 ft 408 kts 309°
2026-04-29 20:33 28.21556 -97.85056 42885 ft 407 kts 308°
2026-04-29 20:34 28.25268 -97.89912 42888 ft 407 kts 308°
2026-04-29 20:34 28.28975 -97.94768 42877 ft 407 kts 308°
2026-04-29 20:35 28.32651 -97.99588 42878 ft 406 kts 308°
2026-04-29 20:35 28.36348 -98.04441 42864 ft 406 kts 308°
2026-04-29 20:36 28.40041 -98.09295 42841 ft 406 kts 308°
2026-04-29 20:36 28.43730 -98.14149 42841 ft 405 kts 308°
2026-04-29 20:37 28.47411 -98.18998 42844 ft 405 kts 308°
2026-04-29 20:37 28.51065 -98.23817 42846 ft 405 kts 308°
2026-04-29 20:38 28.55036 -98.28371 42835 ft 409 kts 316°
2026-04-29 20:38 28.59873 -98.31891 42833 ft 419 kts 327°
2026-04-29 20:39 28.65429 -98.34131 42849 ft 431 kts 339°
2026-04-29 20:39 28.71413 -98.35036 42876 ft 439 kts 345°
2026-04-29 20:40 28.77496 -98.35770 42884 ft 439 kts 345°
2026-04-29 20:40 28.83573 -98.36482 42891 ft 439 kts 345°
2026-04-29 20:41 28.89646 -98.37204 42903 ft 439 kts 345°
2026-04-29 20:41 28.95678 -98.37919 42901 ft 438 kts 345°
2026-04-29 20:42 29.01745 -98.38640 42905 ft 438 kts 345°
2026-04-29 20:42 29.07816 -98.39362 42902 ft 438 kts 345°
2026-04-29 20:43 29.13880 -98.40083 42891 ft 438 kts 345°
2026-04-29 20:43 29.19900 -98.40801 42915 ft 438 kts 345°
2026-04-29 20:44 29.25965 -98.41524 42922 ft 438 kts 345°
2026-04-29 20:44 29.32031 -98.42250 42923 ft 438 kts 345°
2026-04-29 20:45 29.38098 -98.42975 42918 ft 438 kts 344°
2026-04-29 20:45 29.44163 -98.43702 42950 ft 439 kts 344°
2026-04-29 20:46 29.50193 -98.44424 42945 ft 439 kts 344°
2026-04-29 20:46 29.56271 -98.45154 42940 ft 439 kts 344°
2026-04-29 20:47 29.62356 -98.45871 42937 ft 441 kts 345°
2026-04-29 20:47 29.65466 -98.45902 42933 ft 452 kts 353°
2026-04-29 20:47 29.68626 -98.45520 42933 ft 459 kts 357°
2026-04-29 20:48 29.74970 -98.44587 42936 ft 459 kts 356°
2026-04-29 20:48 29.81265 -98.43676 42919 ft 460 kts 356°
2026-04-29 20:49 29.87618 -98.42741 42899 ft 460 kts 356°
2026-04-29 20:49 29.93972 -98.41814 42903 ft 461 kts 356°
2026-04-29 20:50 30.00345 -98.40878 42906 ft 462 kts 356°
2026-04-29 20:50 30.06679 -98.39948 42907 ft 462 kts 356°
2026-04-29 20:51 30.13062 -98.39010 42915 ft 463 kts 356°
2026-04-29 20:51 30.19449 -98.38070 42918 ft 463 kts 356°
2026-04-29 20:52 30.25838 -98.37130 42939 ft 463 kts 356°
2026-04-29 20:52 30.32235 -98.36186 42964 ft 464 kts 356°
2026-04-29 20:53 30.38590 -98.35247 42983 ft 464 kts 356°
2026-04-29 20:53 30.44992 -98.34300 42992 ft 464 kts 356°
2026-04-29 20:54 30.54595 -98.32875 43000 ft 464 kts 356°
2026-04-29 20:55 30.60995 -98.31923 42992 ft 463 kts 356°
2026-04-29 20:55 30.67351 -98.30978 43001 ft 464 kts 356°
2026-04-29 20:56 30.73749 -98.30024 42991 ft 464 kts 356°
2026-04-29 20:56 30.80161 -98.29068 42997 ft 465 kts 356°
2026-04-29 20:57 30.86571 -98.28110 42995 ft 465 kts 356°
2026-04-29 20:57 30.92994 -98.27149 42984 ft 465 kts 356°
2026-04-29 20:58 30.99375 -98.26193 42984 ft 466 kts 356°
2026-04-29 20:58 31.05815 -98.25227 42980 ft 466 kts 356°
2026-04-29 20:59 31.12253 -98.24260 42982 ft 467 kts 356°
2026-04-29 20:59 31.18704 -98.23290 42989 ft 467 kts 356°
2026-04-29 21:00 31.25113 -98.22324 42990 ft 468 kts 356°
2026-04-29 21:00 31.31571 -98.21351 42996 ft 468 kts 356°
2026-04-29 21:01 31.38034 -98.20373 43002 ft 468 kts 356°
2026-04-29 21:01 31.44492 -98.19397 42999 ft 468 kts 356°
2026-04-29 21:02 31.50901 -98.18425 43011 ft 467 kts 356°
2026-04-29 21:02 31.57347 -98.17452 43024 ft 467 kts 356°
2026-04-29 21:03 31.63798 -98.16487 43020 ft 467 kts 356°
2026-04-29 21:03 31.70243 -98.15498 43017 ft 467 kts 356°
2026-04-29 21:04 31.76688 -98.14519 43017 ft 467 kts 356°
2026-04-29 21:04 31.83084 -98.13540 43009 ft 466 kts 356°
2026-04-29 21:05 31.89527 -98.12555 43010 ft 467 kts 356°
2026-04-29 21:05 31.95959 -98.11569 43020 ft 466 kts 355°
2026-04-29 21:06 32.02387 -98.10588 43037 ft 467 kts 355°
2026-04-29 21:06 32.08830 -98.09598 43052 ft 467 kts 355°
2026-04-29 21:07 32.15235 -98.08616 43050 ft 467 kts 355°
2026-04-29 21:07 32.21683 -98.07625 43058 ft 468 kts 355°
2026-04-29 21:08 32.28133 -98.06631 43046 ft 468 kts 355°
2026-04-29 21:08 32.34600 -98.05636 43036 ft 470 kts 355°
2026-04-29 21:09 32.41041 -98.04640 43015 ft 470 kts 355°
2026-04-29 21:09 32.47531 -98.03638 43016 ft 471 kts 355°
2026-04-29 21:10 32.54040 -98.02629 43007 ft 472 kts 355°
2026-04-29 21:10 32.60546 -98.01621 43015 ft 473 kts 355°
2026-04-29 21:11 32.67095 -98.00605 43024 ft 475 kts 355°
2026-04-29 21:11 32.73617 -97.99590 43026 ft 477 kts 355°
2026-04-29 21:12 32.80205 -97.98663 43023 ft 477 kts 354°
2026-04-29 21:12 32.86805 -97.97714 43023 ft 479 kts 355°
2026-04-29 21:13 32.93380 -97.96768 43028 ft 478 kts 355°
2026-04-29 21:13 32.99990 -97.95821 43033 ft 479 kts 355°
2026-04-29 21:14 33.06611 -97.94865 43048 ft 479 kts 355°
2026-04-29 21:14 33.13238 -97.93912 43058 ft 480 kts 355°
2026-04-29 21:15 33.19866 -97.92954 43051 ft 480 kts 355°
2026-04-29 21:15 33.26459 -97.92001 43046 ft 481 kts 355°
2026-04-29 21:16 33.33104 -97.91111 43028 ft 475 kts 351°
2026-04-29 21:16 33.36363 -97.91160 43033 ft 463 kts 344°
2026-04-29 21:16 33.39518 -97.91654 43029 ft 453 kts 338°
2026-04-29 21:17 33.45389 -97.93845 43036 ft 434 kts 326°
2026-04-29 21:17 33.50480 -97.97369 43029 ft 419 kts 314°
2026-04-29 21:18 33.54717 -98.01981 43043 ft 407 kts 305°
2026-04-29 21:18 33.58580 -98.06982 43042 ft 409 kts 306°
2026-04-29 21:19 33.62446 -98.11984 43037 ft 409 kts 305°
2026-04-29 21:19 33.66313 -98.17007 43051 ft 410 kts 305°
2026-04-29 21:20 33.70147 -98.21980 42703 ft 402 kts 305°
2026-04-29 21:20 33.72023 -98.24414 42141 ft 391 kts 305°
2026-04-29 21:20 33.73841 -98.26781 41597 ft 380 kts 305°
2026-04-29 21:20 33.75607 -98.29084 41072 ft 370 kts 305°
2026-04-29 21:21 33.77331 -98.31333 40569 ft 362 kts 305°
2026-04-29 21:21 33.79025 -98.33545 40083 ft 358 kts 305°
2026-04-29 21:21 33.80711 -98.35748 39612 ft 358 kts 304°
2026-04-29 21:21 33.82399 -98.37955 39170 ft 360 kts 305°
2026-04-29 21:22 33.84100 -98.40178 38709 ft 362 kts 305°
2026-04-29 21:22 33.85787 -98.42381 38221 ft 364 kts 305°
2026-04-29 21:22 33.87506 -98.44628 37742 ft 367 kts 304°
2026-04-29 21:22 33.89239 -98.46900 37272 ft 370 kts 304°
2026-04-29 21:23 33.90989 -98.49193 36790 ft 373 kts 304°
2026-04-29 21:23 33.92752 -98.51501 36291 ft 375 kts 304°
2026-04-29 21:23 33.94520 -98.53818 35799 ft 377 kts 304°
2026-04-29 21:23 33.96299 -98.56155 35307 ft 380 kts 304°
2026-04-29 21:24 33.98091 -98.58509 34814 ft 382 kts 303°
2026-04-29 21:24 33.99914 -98.60798 34403 ft 388 kts 308°
2026-04-29 21:24 34.02123 -98.62763 34184 ft 405 kts 318°
2026-04-29 21:24 34.04892 -98.63997 33217 ft 452 kts 338°
2026-04-29 21:25 34.08117 -98.63883 32875 ft 481 kts 358°
2026-04-29 21:25 34.11379 -98.62455 32253 ft 518 kts 17°
2026-04-29 21:25 34.14322 -98.59754 31584 ft 546 kts 36°
2026-04-29 21:25 34.16826 -98.56247 30952 ft 556 kts 45°
2026-04-29 21:26 34.19155 -98.52495 30295 ft 558 kts 46°
2026-04-29 21:26 34.21452 -98.48827 29559 ft 549 kts 45°
2026-04-29 21:26 34.23857 -98.45314 28853 ft 536 kts 41°
2026-04-29 21:26 34.26397 -98.42097 28158 ft 522 kts 36°
2026-04-29 21:27 34.28212 -98.40147 27675 ft 510 kts 31°
2026-04-29 21:27 34.32088 -98.37215 26782 ft 486 kts 17°
2026-04-29 21:27 34.35131 -98.35550 26001 ft 478 kts 13°
2026-04-29 21:27 34.38195 -98.34010 25086 ft 475 kts 13°
2026-04-29 21:28 34.41188 -98.32323 24189 ft 474 kts 19°
2026-04-29 21:28 34.44046 -98.30368 23256 ft 469 kts 23°
2026-04-29 21:28 34.46777 -98.28387 22248 ft 458 kts 23°
2026-04-29 21:28 34.49540 -98.26586 21257 ft 444 kts 19°
2026-04-29 21:29 34.52274 -98.24948 20302 ft 434 kts 19°
2026-04-29 21:29 34.54926 -98.23268 19362 ft 426 kts 21°
2026-04-29 21:29 34.57566 -98.21790 18452 ft 413 kts 16°
2026-04-29 21:29 34.60183 -98.20443 17709 ft 403 kts 16°
2026-04-29 21:30 34.62743 -98.19151 17255 ft 397 kts 16°
2026-04-29 21:30 34.65314 -98.17862 16805 ft 402 kts 16°
2026-04-29 21:30 34.67891 -98.16549 16362 ft 402 kts 17°
2026-04-29 21:30 34.70467 -98.15225 15921 ft 401 kts 17°
2026-04-29 21:31 34.73001 -98.13933 15480 ft 400 kts 17°
2026-04-29 21:31 34.75564 -98.12634 15040 ft 398 kts 17°
2026-04-29 21:31 34.78114 -98.11334 14606 ft 396 kts 17°
2026-04-29 21:31 34.80644 -98.10039 14172 ft 393 kts 17°
2026-04-29 21:32 34.83160 -98.08754 13778 ft 392 kts 17°
2026-04-29 21:32 34.85662 -98.07477 13338 ft 388 kts 18°
2026-04-29 21:32 34.88141 -98.06207 12913 ft 384 kts 18°
2026-04-29 21:32 34.90594 -98.04952 12496 ft 380 kts 18°
2026-04-29 21:33 34.92989 -98.03727 12091 ft 376 kts 18°
2026-04-29 21:33 34.95386 -98.02498 11678 ft 372 kts 18°
2026-04-29 21:33 34.97733 -98.01205 11243 ft 369 kts 25°
2026-04-29 21:33 34.99674 -97.99332 10863 ft 336 kts 39°
2026-04-29 21:34 35.01360 -97.97497 10529 ft 320 kts 38°
2026-04-29 21:34 35.03034 -97.95749 10190 ft 312 kts 37°
2026-04-29 21:34 35.04664 -97.94046 9843 ft 305 kts 38°
2026-04-29 21:34 35.06248 -97.92359 9495 ft 300 kts 38°
2026-04-29 21:35 35.07812 -97.90690 9167 ft 297 kts 39°
2026-04-29 21:35 35.09366 -97.89042 8846 ft 295 kts 39°
2026-04-29 21:35 35.10740 -97.87247 8444 ft 295 kts 57°
2026-04-29 21:35 35.11390 -97.84908 8150 ft 288 kts 79°
2026-04-29 21:36 35.11700 -97.82542 7899 ft 275 kts 82°
2026-04-29 21:36 35.11971 -97.80318 7612 ft 255 kts 82°
2026-04-29 21:36 35.12245 -97.78241 7324 ft 242 kts 81°
2026-04-29 21:36 35.12516 -97.76238 7053 ft 236 kts 82°
2026-04-29 21:37 35.12777 -97.74275 6797 ft 232 kts 82°
2026-04-29 21:37 35.13031 -97.72336 6549 ft 231 kts 82°
2026-04-29 21:37 35.13279 -97.70449 6285 ft 222 kts 82°
2026-04-29 21:37 35.13518 -97.68636 6026 ft 213 kts 82°
2026-04-29 21:38 35.13802 -97.66866 5778 ft 212 kts 76°
2026-04-29 21:38 35.14318 -97.65186 5554 ft 211 kts 66°
2026-04-29 21:38 35.15050 -97.63624 5324 ft 212 kts 57°
2026-04-29 21:38 35.15978 -97.62237 5094 ft 211 kts 48°
2026-04-29 21:39 35.17069 -97.61060 4871 ft 204 kts 39°
2026-04-29 21:39 35.18226 -97.60164 4638 ft 190 kts 31°
2026-04-29 21:39 35.19395 -97.59530 4444 ft 180 kts 24°
2026-04-29 21:39 35.20582 -97.59104 4260 ft 177 kts 18°
2026-04-29 21:40 35.21795 -97.58923 4055 ft 178 kts
2026-04-29 21:40 35.23037 -97.58899 3873 ft 180 kts
2026-04-29 21:40 35.24286 -97.58894 3673 ft 179 kts
2026-04-29 21:40 35.25527 -97.58894 3484 ft 178 kts
2026-04-29 21:41 35.26753 -97.58894 3288 ft 174 kts
2026-04-29 21:41 35.27966 -97.58895 3094 ft 174 kts
2026-04-29 21:41 35.29160 -97.58895 2884 ft 162 kts
2026-04-29 21:41 35.30169 -97.58903 2758 ft 134 kts
2026-04-29 21:42 35.31049 -97.58897 2592 ft 123 kts
2026-04-29 21:42 35.31903 -97.58897 2452 ft 124 kts
2026-04-29 21:42 35.32487 -97.58897 2343 ft 125 kts
2026-04-29 21:42 35.33663 -97.58896 2127 ft 131 kts
2026-04-29 21:43 35.34557 -97.58896 1918 ft 126 kts
2026-04-29 21:43 35.35426 -97.58893 1779 ft 124 kts
2026-04-29 21:43 35.36283 -97.58907 1626 ft 121 kts
2026-04-29 21:43 35.37122 -97.58899 1439 ft 120 kts
2026-04-29 21:44 35.37930 -97.58892 1302 ft 114 kts
2026-04-29 21:44 35.38613 -97.58896 1290 ft 81 kts 360°
2026-04-29 21:44 35.38994 -97.58895 1292 ft 40 kts
2026-04-29 21:44 35.39168 -97.58891 1292 ft 16 kts 11°
2026-04-29 21:45 35.39224 -97.58800 1293 ft 13 kts 84°
2026-04-29 21:45 35.39275 -97.58728 1291 ft 12 kts 10°
2026-04-29 21:45 35.39364 -97.58727 1289 ft 13 kts 359°
2026-04-29 21:45 35.39455 -97.58727 1289 ft 13 kts
2026-04-29 21:46 35.39539 -97.58727 1289 ft 12 kts 360°
2026-04-29 21:46 35.39618 -97.58727 1288 ft 11 kts 360°
2026-04-29 21:46 35.39698 -97.58727 1287 ft 12 kts 359°
2026-04-29 21:46 35.39762 -97.58728 1287 ft 4 kts 360°
2026-04-29 21:47 35.39755 -97.58743 1287 ft 8 kts 184°
2026-04-29 21:47 35.39719 -97.58681 1287 ft 9 kts 94°
2026-04-29 21:47 35.39693 -97.58612 1287 ft 11 kts 160°
2026-04-29 21:47 35.39616 -97.58580 1288 ft 12 kts 123°
2026-04-29 21:48 35.39629 -97.58536 1286 ft 3 kts
2026-04-29 21:48 35.39632 -97.58536 1286 ft 0 kts